Retour au catalogue

STARLINK-34621

ActifCommunicationsVLEO
NORAD 64774·PAYLOAD·🇺🇸 United States

Lancé Jul 8, 2025 depuis Cape Canaveral Space Force Station

Loading…

Prochains Passages (prochaines 24 heures)

TLE

FraisSource: CelesTrak SupGP

Époque: Sep 14, 2026, 15:11 UTC

1 64774C 25147V   26257.63312500 -.00033328  00000+0 -98451-3 0  2576
2 64774  53.1594  84.8690 0001186  85.5041 268.0997 15.34413030    17

Suivez STARLINK-34621 en temps réel avec AllMySat

Download on the App Store